Jackson, MS

3:30 AM CDT on May 23, 2017 (GMT -0500)
Jackson-Evers International

Weather History for KJAN - April, 2012

Change the Weather History Date:

Tuesday, April 24, 2012

  Actual Average Record
Temperature  
Mean Temperature 58 °F 66 °F  
Max Temperature 75 °F 78 °F 93 °F (1925)
Min Temperature 40 °F 55 °F 39 °F (1910)
Degree Days  
Heating Degree Days 7 2  
Month to date heating degree days 48 98  
Since 1 July heating degree days 1687 2368  
Cooling Degree Days 0 3  
Month to date cooling degree days 55 57  
Year to date cooling degree days 198 94  
Growing Degree Days 7 (Base 50)    
Moisture  
Dew Point 43 °F    
Average Humidity 60    
Maximum Humidity 89    
Minimum Humidity 31    
Precipitation  
Precipitation 0.00 in 0.15 in 3.24 in (2003)
Month to date precipitation 4.54 4.12  
Year to date precipitation 23.90 18.89  
Sea Level Pressure  
Sea Level Pressure 30.02 in    
Wind  
Wind Speed 6 mph (SW)    
Max Wind Speed 15 mph    
Max Gust Speed 21 mph    
Visibility 10 miles    
Events      
T = Trace of Precipitation, MM = Missing Value Source: NWS Daily Summary

Daily Weather History Graph

Daily Weather History Graph

Search for Another Location

Airport or City:

Trip Planner

Search our weather history database for the weather conditions in past years. The results will help you decide how hot, cold, wet, or windy it might be!

Date:

Astronomy

Apr. 24, 2012 Rise Set
Actual Time 6:20 AM CDT 7:36 PM CDT
Civil Twilight 5:54 AM CDT 8:02 PM CDT
Nautical Twilight 5:24 AM CDT 8:33 PM CDT
Astronomical Twilight 4:52 AM CDT 9:04 PM CDT
Moon 8:24 AM CDT (4/24) 10:48 PM CDT (4/24)
Length of Visible Light 14h 07m
Length of Day
13h 16m
Waxing Crescent, 10% of the Moon is Illuminated
Apr 24
Waxing Crescent
Apr 29
First Quarter
May 5
Full
May 12
Last Quarter
May 20
New

Hourly Weather History & Observations

Time (CDT) Temp. Windchill Dew Point Humidity Pressure Visibility Wind Dir Wind Speed Gust Speed Precip Events Conditions
12:54 AM 44.1 °F - 39.0 °F 82% 30.06 in 10.0 mi Calm Calm - N/A   Clear
1:54 AM 44.1 °F - 39.9 °F 85% 30.05 in 10.0 mi Calm Calm - N/A   Clear
2:54 AM 42.1 °F - 39.0 °F 89% 30.04 in 10.0 mi Calm Calm - N/A   Clear
3:54 AM 42.1 °F - 39.0 °F 89% 30.04 in 10.0 mi Calm Calm - N/A   Clear
4:54 AM 41.0 °F 39.0 °F 37.9 °F 89% 30.04 in 10.0 mi SE 3.5 mph - N/A   Clear
5:54 AM 42.1 °F - 37.9 °F 85% 30.05 in 10.0 mi Calm Calm - N/A   Clear
6:54 AM 42.1 °F - 37.9 °F 85% 30.06 in 10.0 mi Calm Calm - N/A   Clear
7:54 AM 50.0 °F - 41.0 °F 71% 30.08 in 10.0 mi Calm Calm - N/A   Clear
8:54 AM 57.0 °F - 39.9 °F 53% 30.09 in 10.0 mi WSW 4.6 mph - N/A   Clear
9:54 AM 63.0 °F - 42.1 °F 46% 30.09 in 10.0 mi SW 9.2 mph - N/A   Clear
10:54 AM 66.9 °F - 42.1 °F 40% 30.09 in 10.0 mi SW 9.2 mph - N/A   Clear
11:54 AM 70.0 °F - 42.1 °F 36% 30.08 in 10.0 mi West 10.4 mph - N/A   Clear
12:54 PM 72.0 °F - 42.1 °F 34% 30.05 in 10.0 mi NW 9.2 mph - N/A   Clear
1:54 PM 73.0 °F - 44.1 °F 35% 30.04 in 10.0 mi West 9.2 mph 16.1 mph N/A   Clear
2:54 PM 73.9 °F - 43.0 °F 33% 30.01 in 10.0 mi West 9.2 mph 18.4 mph N/A   Clear
3:54 PM 75.0 °F - 43.0 °F 32% 29.98 in 10.0 mi West 8.1 mph - N/A   Clear
4:54 PM 75.0 °F - 43.0 °F 32% 29.97 in 10.0 mi WSW 10.4 mph - N/A   Clear
5:54 PM 73.9 °F - 43.0 °F 33% 29.95 in 10.0 mi SW 10.4 mph - N/A   Clear
6:54 PM 72.0 °F - 45.0 °F 38% 29.94 in 10.0 mi SW 6.9 mph - N/A   Clear
7:54 PM 64.9 °F - 48.0 °F 54% 29.94 in 10.0 mi SSW 4.6 mph - N/A   Clear
8:54 PM 60.1 °F - 48.9 °F 67% 29.95 in 10.0 mi South 5.8 mph - N/A   Clear
9:54 PM 61.0 °F - 48.0 °F 62% 29.96 in 10.0 mi SSW 6.9 mph - N/A   Clear
10:54 PM 62.1 °F - 48.0 °F 60% 29.96 in 10.0 mi SSW 6.9 mph - N/A   Clear
11:54 PM 61.0 °F - 48.0 °F 62% 29.94 in 10.0 mi South 8.1 mph - N/A   Clear